sat.trackr.live / text

‹ back to catalog

STARLINK-37093

NORAD 68194 · 2026-050AD

PAYLOAD ACTIVE UNKNOWN

§ Identity

Operator
Country
US
Launch date
2026-03-14
Launch site
AFETR
Launch vehicle
Mass (kg)
RCS (m²)

Purposes: comms

External: N2YO · Heavens-Above · Gunter

§ Orbital elements

Epoch: 2026-09-20T03:33:03.209184Z

Period
93.85 min
Inclination
53.1611°
Eccentricity
0.0000638
Mean motion
15.34396124 rev/d
Perigee alt
462.3 km
Apogee alt
463.2 km
Semi-major
6,840.9 km
B*
2.5560e-4
RAAN
79.3832°
Arg perigee
88.1640°
Mean anomaly
271.9436°
Rev number
3,051

§ Raw data

STARLINK-370931 68194U 26050AD  26263.14795381  .00008269  00000+0  25560-3 0  99932 68194  53.1611  79.3832 0000638  88.1640 271.9436 15.34396124 30512

JSON: /api/v1/satellites/68194 · /tle

For live sub-satellite position, see the globe view (requires WebGL).

§ Visibility from observer

Set your observer location to see the next 7 days of passes ≥ 10°. The values pass through the URL so the page stays shareable.

No JS? Fill the form by hand. The geolocation button needs JavaScript.